This demonstration page uses our WeatherBlox Daily Observations layout. Learn more.

Hourly Observations for December 31, 2019

Temp ( °F °C ) Dew Point ( °F °C ) Humidity (%) Winds ( mph kmh ) Pressure ( in mb ) Visibility ( mi km ) Precip ( " mm )
12:15 am 00:15 Cloudy 37 3 37 3 100 100 N 6 9 29.77 1008 2.5 4.02335 0 0
12:35 am 00:35 Cloudy 37 3 37 3 100 100 Calm 29.77 1008 2.5 4.02335 0 0
12:55 am 00:55 Cloudy 37 3 37 3 100 100 NNE 6 9 29.77 1008 5 8.0467 0 0
1:15 am 01:15 Cloudy 37 3 37 3 100 100 NNE 9 15 29.77 1008 4 6.43736 0 0
1:35 am 01:35 Cloudy 37 3 37 3 100 100 NNE 6 9 29.77 1008 5 8.0467 0 0
1:55 am 01:55 Cloudy 37 3 37 3 100 100 NNE 5 7 29.78 1008 3 4.82802 0 0
2:15 am 02:15 Cloudy 37 3 37 3 100 100 N 5 7 29.79 1009 2.5 4.02335 0 0
2:35 am 02:35 Cloudy 37 3 37 3 100 100 NE 3 6 29.78 1008 3 4.82802 0 0
2:55 am 02:55 Cloudy 37 3 37 3 100 100 Calm 29.78 1008 3 4.82802 0 0
3:15 am 03:15 Cloudy 37 3 37 3 100 100 Calm 29.78 1008 4 6.43736 0 0
3:35 am 03:35 Cloudy 37 3 37 3 100 100 Calm 29.78 1008 5 8.0467 0 0
3:55 am 03:55 Cloudy 37 3 37 3 100 100 NE 5 7 29.77 1008 4 6.43736 0 0
4:15 am 04:15 Cloudy 37 3 37 3 100 100 Calm 29.77 1008 4 6.43736 0 0
4:35 am 04:35 Cloudy 36 2 36 2 100 100 Calm 29.77 1008 4 6.43736 0 0
4:55 am 04:55 Cloudy 37 3 37 3 100 100 Calm 29.76 1008 4 6.43736 0 0
5:15 am 05:15 Cloudy 36 2 36 2 100 100 Calm 29.77 1008 5 8.0467 0 0
5:35 am 05:35 Cloudy 36 2 36 2 100 100 Calm 29.77 1008 5 8.0467 0 0
5:55 am 05:55 Cloudy 36 2 36 2 100 100 Calm 29.76 1008 5 8.0467 0 0
6:15 am 06:15 Cloudy 36 2 36 2 100 100 Calm 29.77 1008 5 8.0467 0 0
6:35 am 06:35 Cloudy 36 2 36 2 100 100 Calm 29.77 1008 5 8.0467 0 0
6:55 am 06:55 Cloudy 36 2 36 2 100 100 Calm 29.77 1008 4 6.43736 0 0
7:15 am 07:15 Cloudy 36 2 36 2 100 100 Calm 29.77 1008 3 4.82802 0 0
7:35 am 07:35 Cloudy 36 2 36 2 100 100 Calm 29.77 1008 2.5 4.02335 0 0
7:55 am 07:55 Cloudy 36 2 36 2 100 100 S 5 7 29.77 1008 1.75 2.816345 0 0
8:15 am 08:15 Cloudy 36 2 36 2 100 100 SSW 5 7 29.77 1008 2 3.21868 0 0
8:35 am 08:35 Cloudy 36 2 36 2 100 100 S 3 6 29.77 1008 3 4.82802 0 0
8:55 am 08:55 Cloudy 37 3 37 3 100 100 SSW 6 9 29.78 1008 4 6.43736 0 0
9:15 am 09:15 Cloudy 37 3 37 3 100 100 SSW 5 7 29.78 1008 5 8.0467 0 0
9:35 am 09:35 Cloudy 37 3 37 3 100 100 SSW 5 7 29.78 1008 5 8.0467 0 0
9:55 am 09:55 Cloudy 37 3 37 3 100 100 Calm 29.78 1008 7 11.26538 0 0
10:15 am 10:15 Cloudy 37 3 37 3 100 100 SW 3 6 29.79 1009 7 11.26538 0 0
10:35 am 10:35 Cloudy 39 4 39 4 100 100 W 3 6 29.78 1008 7 11.26538 0 0
10:55 am 10:55 Cloudy 41 5 39 4 93 93 W 5 7 29.76 1008 10 16.0934 0 0
11:15 am 11:15 Cloudy 41 5 39 4 93 93 Calm 29.75 1008 10 16.0934 0 0
11:35 am 11:35 Cloudy 43 6 39 4 87 87 SSW 3 6 29.74 1007 10 16.0934 0 0
11:55 am 11:55 Cloudy 43 6 39 4 87 87 SSW 5 7 29.73 1007 10 16.0934 0 0
12:15 pm 12:15 Cloudy 45 7 39 4 81 81 WSW 3 6 29.72 1006 10 16.0934 0 0
12:35 pm 12:35 Cloudy 45 7 37 3 76 76 W 5 7 29.71 1006 10 16.0934 0 0
12:55 pm 12:55 Cloudy 46 8 34 1 62 62 W 9 15 29.7 1006 10 16.0934 0 0
1:15 pm 13:15 Cloudy 46 8 32 0 57 57 WSW 10 17 29.7 1006 10 16.0934 0 0
1:35 pm 13:35 Partly Cloudy 48 9 32 0 54 54 W 12 19 29.69 1005 10 16.0934 0 0
1:55 pm 13:55 Sunny 48 9 32 0 54 54 SSW 14 22 29.68 1005 10 16.0934 0 0
2:15 pm 14:15 Partly Cloudy 50 10 32 0 50 50 W 13 20 29.68 1005 10 16.0934 0 0
2:35 pm 14:35 Partly Cloudy 46 8 32 0 57 57 W 9 15 29.68 1005 10 16.0934 0 0
2:55 pm 14:55 Mostly Cloudy 50 10 32 0 50 50 W 9 15 29.68 1005 10 16.0934 0 0
3:15 pm 15:15 Partly Cloudy 46 8 32 0 57 57 W 9 15 29.68 1005 10 16.0934 0 0
3:35 pm 15:35 Mostly Cloudy 46 8 32 0 57 57 WSW 7 11 29.69 1005 10 16.0934 0 0
3:55 pm 15:55 Cloudy 46 8 32 0 57 57 WSW 5 7 29.69 1005 10 16.0934 0 0
4:15 pm 16:15 Cloudy 48 9 32 0 54 54 WSW 6 9 29.69 1005 10 16.0934 0 0
4:35 pm 16:35 Cloudy 46 8 32 0 57 57 WNW 3 6 29.7 1006 10 16.0934 0 0
4:55 pm 16:55 Cloudy 46 8 32 0 57 57 NW 9 15 29.71 1006 10 16.0934 0 0
5:15 pm 17:15 Cloudy 46 8 32 0 57 57 NW 13 20 29.71 1006 10 16.0934 0 0
5:35 pm 17:35 Cloudy 46 8 32 0 57 57 WNW 13 20 29.72 1006 10 16.0934 0 0
5:55 pm 17:55 Cloudy 45 7 32 0 61 61 WNW 13 20 29.73 1007 10 16.0934 0 0
6:15 pm 18:15 Cloudy 45 7 32 0 61 61 WNW 13 20 29.73 1007 10 16.0934 0 0
6:35 pm 18:35 Cloudy 45 7 32 0 61 61 NW 12 19 29.74 1007 10 16.0934 0 0
6:55 pm 18:55 Cloudy 45 7 30 -1 57 57 WNW 12 19 29.74 1007 10 16.0934 0 0
7:15 pm 19:15 Cloudy 43 6 30 -1 61 61 NW 9 15 29.74 1007 10 16.0934 0 0
7:35 pm 19:35 Mostly Cloudy 43 6 30 -1 61 61 NW 10 17 29.74 1007 10 16.0934 0 0
7:55 pm 19:55 Mostly Cloudy 43 6 30 -1 61 61 NW 9 15 29.75 1008 10 16.0934 0 0
8:15 pm 20:15 Cloudy 43 6 30 -1 61 61 NNW 6 9 29.75 1008 10 16.0934 0 0
8:35 pm 20:35 Cloudy 43 6 30 -1 61 61 NNW 12 19 29.76 1008 10 16.0934 0 0
8:55 pm 20:55 Cloudy 43 6 30 -1 61 61 NNW 10 17 29.76 1008 10 16.0934 0 0
9:15 pm 21:15 Cloudy 43 6 30 -1 61 61 NNW 6 9 29.77 1008 10 16.0934 0 0
9:35 pm 21:35 Cloudy 43 6 30 -1 61 61 NNW 8 13 29.77 1008 10 16.0934 0 0
9:55 pm 21:55 Cloudy 41 5 30 -1 66 66 NW 6 9 29.77 1008 10 16.0934 0 0
10:15 pm 22:15 Cloudy 43 6 30 -1 61 61 WNW 10 17 29.77 1008 10 16.0934 0 0
10:35 pm 22:35 Cloudy 43 6 30 -1 61 61 NW 13 20 29.78 1009 10 16.0934 0 0
10:55 pm 22:55 Cloudy 41 5 30 -1 66 66 WNW 10 17 29.78 1009 10 16.0934 0 0
11:15 pm 23:15 Cloudy 41 5 30 -1 66 66 NW 13 20 29.78 1009 10 16.0934 0 0
11:35 pm 23:35 Cloudy 41 5 30 -1 66 66 NW 16 26 29.77 1008 10 16.0934 0 0
11:55 pm 23:55 Cloudy 41 5 30 -1 66 66 NNW 16 26 29.77 1008 10 16.0934 0 0

Powered by AerisWeather